TimeEST,TemperatureF,Dew PointF,Humidity,Sea Level PressureIn,VisibilityMPH,Wind Direction,Wind SpeedMPH,Gust SpeedMPH,PrecipitationIn,Events,Conditions,WindDirDegrees,DateUTC
12:54 AM,59.0,44.1,58,29.99,10.0,SW,10.4,18.4,N/A,,Overcast,230,2012-12-02 05:54:00
1:54 AM,59.0,45.0,60,29.97,10.0,SW,12.7,19.6,N/A,,Overcast,220,2012-12-02 06:54:00
2:54 AM,59.0,46.0,62,29.96,10.0,SW,9.2,-,N/A,,Overcast,220,2012-12-02 07:54:00
3:54 AM,57.9,46.9,67,29.96,10.0,SW,6.9,17.3,0.00,Rain,Light Rain,220,2012-12-02 08:54:00
4:15 AM,55.4,48.2,77,29.96,5.0,SW,9.2,17.3,0.04,Rain,Rain,220,2012-12-02 09:15:00
4:27 AM,55.4,50.0,82,29.96,5.0,SW,9.2,18.4,0.09,Rain,Light Rain,220,2012-12-02 09:27:00
4:54 AM,55.0,51.1,86,29.95,10.0,SW,8.1,-,0.09,,Overcast,220,2012-12-02 09:54:00
5:50 AM,55.4,51.8,88,29.95,6.0,WSW,5.8,-,0.02,Rain,Rain,240,2012-12-02 10:50:00
5:54 AM,54.0,51.1,90,29.96,5.0,SW,9.2,-,0.03,Rain,Light Rain,230,2012-12-02 10:54:00
6:26 AM,55.4,51.8,88,29.95,10.0,WSW,6.9,-,0.02,,Overcast,240,2012-12-02 11:26:00
6:54 AM,55.0,51.1,86,29.96,10.0,SW,8.1,-,0.02,,Overcast,230,2012-12-02 11:54:00
7:54 AM,55.9,51.1,84,29.98,10.0,WSW,5.8,-,N/A,,Overcast,240,2012-12-02 12:54:00
8:38 AM,55.4,51.8,88,29.99,10.0,SW,6.9,-,N/A,,Overcast,230,2012-12-02 13:38:00
8:54 AM,55.9,52.0,87,29.99,10.0,WSW,5.8,-,N/A,,Overcast,250,2012-12-02 13:54:00
9:54 AM,57.0,52.0,83,30.00,10.0,WSW,5.8,-,N/A,,Overcast,240,2012-12-02 14:54:00
11:54 AM,62.1,54.0,75,30.00,10.0,West,13.8,20.7,N/A,,Mostly Cloudy,260,2012-12-02 16:54:00
12:54 PM,61.0,54.0,78,29.99,10.0,West,11.5,17.3,N/A,,Overcast,260,2012-12-02 17:54:00
1:54 PM,61.0,54.0,78,29.99,10.0,WSW,6.9,-,N/A,,Overcast,250,2012-12-02 18:54:00
2:54 PM,62.1,55.0,78,29.99,10.0,WSW,6.9,-,N/A,,Overcast,250,2012-12-02 19:54:00
3:42 PM,62.6,55.4,77,30.00,10.0,WSW,5.8,-,N/A,,Mostly Cloudy,250,2012-12-02 20:42:00
4:14 PM,62.6,55.4,77,30.01,10.0,Calm,Calm,-,N/A,,Overcast,0,2012-12-02 21:14:00
4:21 PM,62.6,55.4,77,30.00,10.0,SW,3.5,-,N/A,,Overcast,220,2012-12-02 21:21:00
4:54 PM,62.1,54.0,75,30.01,10.0,WSW,4.6,-,N/A,,Mostly Cloudy,240,2012-12-02 21:54:00
5:54 PM,61.0,54.0,78,30.02,10.0,SSW,3.5,-,N/A,,Overcast,210,2012-12-02 22:54:00
6:54 PM,55.9,53.1,90,30.04,8.0,Calm,Calm,-,N/A,,Scattered Clouds,0,2012-12-02 23:54:00
7:54 PM,55.9,53.1,90,30.06,9.0,Calm,Calm,-,N/A,,Overcast,0,2012-12-03 00:54:00
8:39 PM,55.4,53.6,94,30.07,8.0,Calm,Calm,-,N/A,,Overcast,0,2012-12-03 01:39:00
8:54 PM,55.0,53.1,93,30.07,8.0,SW,3.5,-,N/A,,Mostly Cloudy,220,2012-12-03 01:54:00
9:54 PM,54.0,53.1,97,30.08,6.0,Calm,Calm,-,N/A,,Mostly Cloudy,0,2012-12-03 02:54:00
10:03 PM,55.4,53.6,94,30.08,6.0,SW,4.6,-,N/A,,Mostly Cloudy,230,2012-12-03 03:03:00
10:17 PM,57.2,55.4,94,30.07,7.0,SW,5.8,-,N/A,,Mostly Cloudy,230,2012-12-03 03:17:00
10:54 PM,57.9,55.9,93,30.07,7.0,Calm,Calm,-,N/A,,Overcast,0,2012-12-03 03:54:00
11:08 PM,57.2,55.4,94,30.08,7.0,Calm,Calm,-,N/A,,Overcast,0,2012-12-03 04:08:00
11:54 PM,55.9,55.0,97,30.08,5.0,SSW,4.6,-,N/A,,Overcast,210,2012-12-03 04:54:00